Weather in Stremutka

Russia / Pskov Oblast     57°39′14″N   28°19′37″E
temp.,
°C
wind,
m/s
gust,
m/s
humid.,
%
clouds,
%
prec.,
mm/h
press.,
hPa
HPBL,
m
1 march, mon
mon100:000wnw339537 0.0 102477
03:00−1wsw239526 0.0 102687
06:000sw349537 0.0 102496
09:00+1w399552 0.0 1024288
12:00+4w41079100 0.0 1024529
15:00+6wsw41075100 0.0 1022590
18:00+4wsw4118397 0.0 1019407
21:00+3wnw4148789 0.0 1018553
2 march, tue
tue200:00+1wnw4139197 0.0 1018461
03:00+1wnw4138899 0.0 1019463
06:00+1w4128581 0.0 1017396
09:00+1wnw4129788 2.0 1016581
12:00+2nw61185100 0.8 1016954
15:00+4nw6117180 0.9 10181202
18:00+2nw512780 0.0 1020656
21:00+1nw5138216 0.0 1022631
3 march, wed
wed300:000nw513840 0.0 1023532
03:00−1wnw410880 0.0 1023413
06:00−1wnw4118812 0.0 1022542
09:000wnw4128514 0.0 1022613
12:00+3wnw510674 0.0 1021923
15:00+5wnw596010 0.0 10191078
18:00+3wsw4107574 0.0 1016336
21:00+2sw4138158 0.0 1013475
4 march, thu
thu400:00+1wsw4137830 0.0 1009562
03:00+2wsw4118865 0.0 1005749
06:00+2w51290100 0.1 1002696
09:00+1nw51097100 0.6 1002649
12:000nw7106786 0.2 10031025
15:00+1nnw7116043 0.2 10041492
18:00−1nnw510610 0.0 10051183
21:00−3nw39720 0.0 1007434
5 march, fri
fri500:00−3wnw12750 0.0 100776
03:00−3wsw127315 0.0 100887
06:00−3n128299 0.1 1008355
09:00−4n468799 1.4 1009557
12:00−3nnw5659100 0.3 10101112
15:00−3nnw574656 0.3 10111357
18:00−4nnw46520 0.0 10121052
21:00−5nnw366339 0.0 1014494